Regional Weather Roundup
Issued by NWS

Home | Current Version | Previous Version | Graphics & Text | Print | Product List | Glossary On
Versions: 1 2 3 4 5 6 7 8 9 10 11 12 13 14 15 16 17 18 19 20 21 22 23 24 25 26 27 28 29 30 31 32 33 34 35 36 37 38 39 40 41 42 43 44 45 46 47 48 49 50
000
ASUS45 KSLC 271610
RWRUT

UTAH REGIONAL WEATHER ROUNDUP
NATIONAL WEATHER SERVICE SALT LAKE CITY UT
1000 AM MDT MON MAR 27 2017

UTZ001>011-023>025-271700-

NORTHERN UTAH

CITY           SKY/WX    TMP DP  RH WIND       PRES   REMARKS
BRIGHAM CITY     N/A     43  38  82 NW7       29.92R
DUGWAY         LGT RAIN  41  39  91 NW3       29.89R
HILL AFB       RAIN      43  39  87 SW6       29.88S
LOGAN          CLOUDY    44  38  79 N3        29.88S
OGDEN          LGT RAIN  44  40  85 S6        29.88R
SALT LAKE CITY LGT RAIN  48  38  68 W10       29.87F
WENDOVER       CLOUDY    46  34  62 NW16      29.89F
HEBER CITY     CLOUDY    39  34  81 CALM      29.88F

$$

UTZ011>015-024>027-271700-

CENTRAL/NORTHEAST UTAH

CITY           SKY/WX    TMP DP  RH WIND       PRES   REMARKS
PROVO AIRPORT  CLOUDY    46  41  82 CALM      29.87F
MOAB/CANYONLAN CLOUDY    53  27  36 E7        29.87F
DELTA          CLOUDY    43  37  81 S6        29.89R
PRICE          CLOUDY    48  28  46 E7        29.88F
RICHFIELD      PTSUNNY   45  37  76 SE5       29.91
ROOSEVELT      LGT RAIN  43  34  70 N5        29.96S
VERNAL         CLOUDY    43  34  70 N7        29.94R

$$

UTZ013>016-019>022-027-271700-

SOUTHERN UTAH

CITY           SKY/WX    TMP DP  RH WIND       PRES   REMARKS
BRYCE CANYON   CLOUDY    38  28  67 SE13      29.93F WCI  30
CEDAR CITY     CLOUDY    42  36  79 NW7       29.88S
MILFORD        LGT RAIN  43  40  89 S5        29.89F FOG
ST GEORGE      CLOUDY    56  35  45 VRB3      29.83F
HANKSVILLE     CLOUDY    50  32  50 CALM      29.90S
KANAB          CLOUDY    50  36  57 N2        29.93F
BLANDING       PTSUNNY   45  29  53 SE6       30.03S

$$

REGIONAL REPORTS     COLORADO/ARIZONA

CITY           SKY/WX    TMP DP  RH WIND       PRES   REMARKS
CRAIG, CO      CLOUDY    46  28  49 E5        29.94F
GRAND JUNCTION CLOUDY    51  30  44 SE8       29.90F
RIFLE, CO      CLOUDY    47  29  49 NE3       29.93F
MONTROSE, CO   PTSUNNY   49  29  46 VRB3      29.95F
CORTEZ, CO     CLOUDY    46  33  60 CALM      29.97F
COLORADO CITY    N/A     55  32  41 SE10      29.90F
PAGE, AZ       CLOUDY    54  36  50 CALM      29.88F
GRAND CANYON   CLOUDY    46  31  55 SW13      29.97F
KINGMAN, AZ    SUNNY     63  25  23 SE18G30   29.86F
FLAGSTAFF, AZ  CLOUDY    46  28  49 SW16G22   30.00F

$$

REGIONAL REPORTS    NEVADA/IDAHO/WYOMING

CITY           SKY/WX    TMP DP  RH WIND       PRES   REMARKS
LAS VEGAS, NV  MOSUNNY   63  35  35 NW6       29.82R
ELY, NY        LGT RAIN  37  35  92 NW7       29.91S WCI  32
ELKO, NV       CLOUDY    37  34  89 SW9       29.96S WCI  30
POCATELLO, ID  LGT RAIN  41  38  89 SW17      29.92R
BURLEY, ID     LGT RAIN  41  36  82 W8        29.92R
EVANSTON, WY   CLOUDY    37  31  78 VRB3      29.90F
ROCK SPRINGS,  PTSUNNY   44  26  49 SW5       29.93S
KEMMERER, WY     N/A     32  28  86 N5        29.92F WCI  27

$$



USA.gov is the U.S. government's official web portal to all federal, state and local government web resources and services.